Theta_e
276 276 276 275 275 276 275 275 275 274 274 274 273 273 273 274 274 274 274 274 274 274 274 274 275 275 275 275 275 275 274 274 275 275 275 275 274 274 273 273 273 273
276 276 276 276 276 275 275 274 274 273 273 273 273 273 273 273 273 274 273 273 274 274 274 274 274 274 274 274 274 274 274 274 274 275 274 274 274 274 273 273 273 273
275 275 275 274 274 274 274 274 274 273 273 273 273 273 273 273 273 273 273 273 273 273 273 274 274 274 274 274 274 274 274 273 273 274 274 273 273 273 273 273 272 273
275 275 274 274 274 273 273 273 273 273 272 272 272 272 272 273 273 273 273 273 273 273 273 273 273 273 273 273 273 273 273 273 273 273 273 273 273 272 272 272 272 272
274 274 274 273 273 273 273 272 272 272 271 272 272 272 272 272 272 272 272 272 272 272 272 272 273 273 273 272 273 272 272 272 272 272 272 271 272 272 272 272 272 271
274 273 273 273 272 272 271 271 271 271 271 271 271 272 271 271 271 271 271 271 272 272 272 272 272 272 272 271 271 271 271 271 271 271 271 270 271 272 272 271 271 271
272 272 272 272 271 271 271 270 271 271 271 271 271 271 271 271 271 271 271 271 271 271 271 270 270 270 271 271 271 270 271 270 270 270 270 270 271 271 271 272 272 271
272 272 271 271 270 270 270 270 270 270 270 270 270 270 271 270 270 270 270 270 270 269 270 270 269 270 270 270 270 269 269 270 269 270 269 269 270 270 270 271 272 272
271 270 270 270 269 269 269 269 270 270 270 269 269 270 270 270 270 269 269 269 269 269 269 269 269 269 269 269 269 269 268 269 269 269 269 269 269 269 270 270 270 271
270 269 269 269 268 269 269 269 269 269 270 269 269 269 269 269 269 268 268 268 268 268 268 268 268 269 268 269 269 268 268 268 268 269 269 269 269 269 269 270 270 270
268 269 268 268 268 268 268 268 268 268 269 268 268 268 268 267 267 268 267 267 267 267 267 267 267 268 268 268 268 269 268 268 268 268 269 269 269 269 271 270 270 270
268 268 268 268 267 268 268 268 268 268 268 268 267 266 266 266 266 266 266 266 266 267 267 267 267 268 268 268 268 268 268 268 269 268 269 269 269 270 270 270 270 270
267 267 267 267 267 267 267 268 267 267 267 266 266 266 265 265 265 265 266 266 266 267 266 267 268 268 268 268 268 268 268 268 268 269 269 269 270 270 270 271 271 271
267 267 267 267 267 267 267 267 266 266 265 265 265 265 264 264 265 265 265 266 266 267 268 268 268 268 268 268 268 268 268 268 269 269 269 269 270 270 270 271 271 271
266 266 266 266 266 266 265 265 265 264 264 264 264 264 264 264 265 265 265 266 267 267 268 268 268 267 267 267 268 269 270 270 270 270 270 270 270 270 271 271 271 271
265 265 265 265 265 264 264 263 263 263 263 262 263 263 264 264 265 265 266 266 266 266 267 266 266 267 268 272 273 270 270 271 272 272 273 273 272 271 272 272 272 272
264 264 264 263 263 262 262 261 262 261 261 261 262 262 263 264 265 265 266 266 266 265 265 265 266 266 271 273 274 275 273 272 272 272 273 273 274 273 273 273 273 272
263 263 262 262 261 261 260 260 260 260 260 261 261 262 263 264 264 265 265 265 265 265 265 265 265 269 272 273 275 276 276 273 273 273 274 275 275 274 275 274 274 274
262 261 261 260 260 260 259 259 259 260 260 260 261 262 263 263 264 264 264 264 264 264 264 265 265 269 272 273 275 276 277 277 274 275 275 275 275 275 275 275 275 274
261 260 259 259 259 259 259 259 259 259 260 261 261 262 262 262 263 263 263 263 263 263 264 264 265 268 272 274 275 277 278 278 275 275 275 275 276 276 276 276 276 275
260 259 258 258 258 258 258 258 258 259 260 261 261 262 261 261 262 262 262 262 263 263 263 263 264 270 273 275 276 277 278 278 275 275 275 275 275 276 276 277 277 276
258 258 257 257 257 257 257 258 258 259 259 260 261 261 261 262 262 262 261 261 262 263 263 263 265 271 273 275 276 277 278 275 274 274 273 274 274 276 276 277 277 277
258 257 256 256 256 256 256 257 258 258 259 260 260 260 260 261 261 261 262 262 262 263 263 264 265 269 273 275 276 277 276 273 273 273 273 273 274 275 276 277 277 277
257 256 255 255 255 255 256 257 258 259 259 260 259 259 259 260 260 261 262 263 263 264 265 265 266 270 273 274 276 277 276 273 272 272 272 273 274 275 276 277 277 279
256 256 255 255 255 256 256 256 257 258 259 260 260 259 259 260 260 261 262 264 265 265 268 268 267 269 272 274 276 276 274 273 272 272 272 272 273 274 275 276 277 278
256 255 255 254 255 255 256 257 258 258 258 258 259 259 259 260 260 261 263 264 266 266 267 267 267 268 270 274 275 276 276 273 272 271 271 272 273 274 274 276 277 277
Wind_Speed
5 4 5 5 6 6 6 6 5 6 7 7 8 10 9 10 10 11 12 11 12 13 13 13 14 15 14 15 15 15 15 17 17 15 16 19 19 20 21 23 22 21
5 5 5 5 5 5 6 5 6 6 8 8 9 10 11 11 12 11 12 13 13 13 14 14 14 15 15 14 15 15 15 15 18 13 16 21 20 21 23 23 23 21
4 4 5 6 5 6 7 6 6 7 7 9 10 10 11 11 13 12 12 12 13 14 14 14 14 14 14 15 15 15 15 16 18 18 18 20 19 20 21 20 20 22
4 4 4 5 5 6 6 6 7 7 8 9 10 10 11 11 12 14 13 14 13 14 14 14 15 14 14 15 15 15 16 18 14 17 18 18 18 19 20 18 19 19
4 4 4 4 4 6 6 7 8 8 9 10 11 11 11 12 13 13 13 13 13 15 14 15 15 15 14 14 14 16 14 14 15 16 17 18 17 16 16 16 18 20
3 3 4 4 5 6 6 7 8 9 10 11 11 11 12 13 13 13 14 15 14 14 15 15 15 15 14 14 13 13 13 14 15 16 18 18 17 15 14 15 17 19
4 3 4 4 6 6 7 7 8 9 9 10 11 11 11 13 13 14 14 14 15 15 16 16 16 16 14 13 14 14 15 16 16 16 17 16 16 18 16 16 18 18
4 3 3 5 6 6 7 7 8 8 9 10 11 12 11 12 14 13 13 15 15 16 16 16 16 16 15 13 15 17 17 15 13 17 17 18 16 17 16 14 16 18
3 3 4 6 6 6 6 7 8 9 9 10 11 11 11 11 13 14 15 15 15 15 16 16 16 15 14 15 16 18 18 18 17 17 19 18 18 17 17 16 18 18
3 4 5 6 5 5 7 7 8 9 9 10 11 11 12 12 12 13 14 15 16 16 15 16 16 15 16 16 18 17 19 20 18 18 18 18 18 18 17 16 18 19
3 4 5 6 6 5 7 8 8 9 9 10 11 11 11 12 12 12 14 14 14 15 17 16 16 17 18 18 17 18 19 19 20 18 18 18 18 18 17 18 18 18
4 4 5 5 5 6 7 7 8 8 9 10 10 12 12 12 12 12 12 15 16 16 16 16 16 18 19 19 19 18 18 18 18 19 18 18 18 17 17 17 17 19
4 4 4 4 4 5 6 7 8 9 10 10 10 11 12 13 13 14 13 14 16 16 15 16 19 18 18 19 19 20 19 18 19 18 19 18 17 18 17 17 18 18
3 4 4 4 4 5 6 7 8 8 10 10 10 11 12 13 14 15 15 14 14 15 16 16 17 18 18 19 19 19 19 19 17 19 18 19 19 18 18 18 18 19
3 3 3 4 4 5 6 7 8 9 10 10 10 11 10 12 13 15 16 16 14 15 16 15 16 16 14 15 16 19 19 19 20 19 20 18 20 18 19 18 19 17
3 3 3 3 4 5 6 7 8 9 9 10 11 11 11 12 13 14 15 15 16 16 15 15 15 13 18 28 26 20 20 18 17 18 18 18 17 17 19 19 20 18
2 2 2 3 4 5 6 7 9 8 9 10 10 10 11 12 12 14 14 13 16 16 17 15 15 14 28 29 30 32 24 20 19 18 18 19 18 17 18 19 18 17
2 2 3 4 4 6 7 7 8 8 9 9 9 10 10 10 12 13 13 15 14 16 16 16 16 23 30 31 32 32 29 21 18 16 16 14 18 16 17 16 16 15
1 1 3 4 5 6 7 7 8 8 8 9 9 9 10 10 13 13 14 14 15 16 17 17 17 24 30 32 31 31 31 27 17 17 15 16 16 18 17 16 16 16
1 1 3 4 5 6 7 7 7 8 8 8 9 9 10 11 11 13 13 15 15 16 17 17 18 23 30 31 31 31 31 28 17 17 16 16 17 16 15 15 16 16
1 1 3 5 6 6 7 7 7 7 8 8 8 9 11 10 12 12 13 12 14 14 15 16 15 27 30 32 31 31 31 28 14 15 15 16 16 17 17 17 17 17
1 1 3 5 6 6 6 7 7 7 8 8 8 10 9 9 10 10 12 13 13 13 14 16 16 28 30 31 32 30 32 18 14 15 16 16 16 16 15 14 16 16
1 2 4 5 5 6 6 7 8 8 8 7 9 9 11 10 10 10 11 12 13 13 14 15 15 22 29 31 30 31 25 15 16 15 15 16 16 16 15 14 15 16
1 2 4 5 5 5 6 7 7 6 7 7 9 11 11 10 10 10 10 11 15 16 13 16 16 22 30 29 30 29 26 18 14 15 15 16 16 16 14 14 15 24
2 3 4 5 6 6 5 6 6 6 7 7 8 9 10 10 10 10 11 12 13 14 20 20 15 19 27 28 29 30 25 16 15 14 16 16 15 16 14 14 14 15
2 3 5 5 6 6 5 5 5 6 7 8 8 7 9 9 9 9 14 13 12 12 11 13 15 15 19 29 28 29 30 20 15 15 16 16 16 14 14 13 13 14
Wind_Direction
221 227 237 246 250 254 262 271 280 291 288 287 284 286 283 285 285 279 277 274 272 274 275 274 277 278 278 277 274 273 271 269 269 265 265 270 269 267 268 267 263 260
223 227 246 251 260 263 270 274 288 290 289 284 282 286 286 286 285 283 283 283 280 276 277 276 275 276 277 276 276 273 272 268 270 268 268 271 272 272 268 267 266 262
224 233 238 252 264 280 281 287 291 289 284 283 284 283 286 288 289 287 285 287 290 288 284 282 280 278 278 278 276 274 274 273 277 280 277 274 276 271 271 270 267 262
231 232 248 260 274 282 287 294 294 290 288 288 286 289 290 290 291 293 292 290 289 289 288 287 288 286 283 281 277 278 278 280 277 279 277 280 278 272 271 269 266 264
236 249 258 269 280 279 286 291 291 289 288 287 292 293 293 294 295 295 295 295 295 293 293 290 289 288 287 285 281 284 280 280 281 281 280 280 279 275 272 269 267 266
249 259 274 287 285 285 289 289 288 290 291 293 292 296 293 293 293 294 296 299 297 295 294 294 292 291 288 284 282 278 279 283 285 285 281 279 279 275 274 271 270 268
259 268 284 283 277 278 283 285 287 288 290 291 296 291 293 294 295 297 298 297 298 295 294 293 291 290 289 288 289 284 285 284 286 282 280 279 279 279 273 272 271 269
254 271 279 272 274 283 288 289 290 292 294 298 293 292 293 295 297 298 297 296 295 292 292 291 290 289 290 290 290 292 289 291 285 284 282 280 280 278 276 275 277 273
261 275 274 273 283 291 291 294 294 295 297 297 295 296 296 296 299 299 298 296 294 292 294 293 290 290 291 293 293 294 289 289 285 283 280 279 277 275 275 274 273 275
261 266 267 274 284 286 287 292 295 295 299 294 295 299 301 301 298 297 297 297 296 294 292 292 292 292 294 295 293 290 290 284 283 282 278 276 275 276 276 275 274 273
256 262 263 273 280 284 290 296 300 301 299 299 301 300 300 301 298 299 297 296 294 294 295 293 292 295 299 296 292 292 285 285 281 279 276 275 274 273 273 273 272 272
245 257 267 276 283 289 294 299 299 298 302 300 299 299 300 298 295 295 295 294 292 293 292 291 295 299 296 295 293 288 287 282 280 278 275 274 272 270 270 268 269 269
242 256 270 278 289 298 303 305 304 303 301 299 302 299 297 297 296 295 292 294 294 294 291 299 303 298 297 292 290 287 282 281 279 277 276 272 267 266 261 260 263 264
244 260 272 288 299 305 306 305 302 298 299 297 298 298 296 294 296 295 294 292 294 300 303 303 299 301 298 296 292 288 286 279 277 275 271 270 267 263 262 261 257 262
251 265 283 298 313 315 308 304 301 298 296 296 294 293 291 291 293 292 294 295 296 301 303 301 303 297 297 293 294 292 289 286 281 272 268 265 269 262 262 256 259 253
255 273 289 323 323 311 306 301 297 295 293 292 291 289 290 291 292 296 299 302 306 306 307 304 298 297 291 293 293 292 291 290 288 285 279 272 264 262 263 257 259 249
248 266 314 321 315 307 297 293 294 292 290 287 286 288 288 290 298 303 305 305 308 307 308 304 301 295 295 294 296 295 295 291 288 283 277 275 266 262 260 261 255 241
237 285 320 312 308 296 292 290 287 285 285 287 287 291 292 294 302 305 307 310 308 308 304 299 297 298 296 298 298 298 297 293 288 284 280 273 269 259 261 253 251 242
240 311 318 305 296 290 288 285 281 283 285 289 290 294 298 303 307 306 307 307 306 302 300 298 294 297 298 299 301 302 302 300 293 286 281 279 274 266 255 252 254 252
195 3 305 293 291 287 285 285 283 283 289 289 294 300 303 304 303 304 305 305 303 301 299 295 293 294 299 302 305 305 305 305 298 295 291 289 290 285 269 257 256 253
139 325 292 288 286 283 284 282 284 288 294 302 306 307 310 307 308 308 304 298 296 294 292 289 288 297 304 306 308 310 310 310 299 300 301 299 296 291 285 270 261 254
129 268 278 280 283 285 285 289 292 297 301 305 305 305 300 300 299 297 295 297 294 292 291 290 290 301 306 309 312 312 313 313 309 306 303 297 292 291 284 277 265 254
160 246 267 276 277 284 287 291 300 303 307 312 308 306 307 307 299 296 293 292 297 298 293 292 289 301 309 313 314 314 317 316 311 304 300 299 298 296 292 283 269 256
184 246 260 272 276 275 284 292 292 296 303 311 310 309 308 301 298 294 292 295 303 303 298 298 302 306 311 315 316 318 321 317 309 307 303 303 300 295 292 283 274 266
221 244 254 266 273 275 282 286 298 305 303 302 300 300 297 296 295 296 301 305 305 299 307 312 298 303 309 316 320 320 321 316 314 309 305 301 300 297 293 289 278 266
245 241 249 253 267 283 280 281 296 301 308 310 302 298 298 298 293 296 310 311 303 303 305 304 303 300 310 320 322 321 323 321 314 307 304 303 302 299 299 294 286 276